Location: Clarion
(42.7316°N, 93.7330°W)
Time: 09:52:48
(UTC+00:00)

Cosmos 1271 Rocket - Pass Details

Date: 22 April 2026
Orbit: 422 x 449 km, 81.2° (Epoch: 17 May)

Event Time Altitude Azimuth Distance (km) Brightness Sun altitude
Exits shadow 09:14:44 22° 319° (NW) 1,054 4.2 -21.1°
Drops below altitude 10° 09:16:32 10° 346° (NNW) 1,593 5.5 -20.9°
Sets 09:18:51 0° 359° (N) 2,469 6.7 -20.6°
